Location: Cumbre Roja
(10.2766°N, 67.0675°W)
Time: 01:32:35
(UTC+00:00)

Cosmos 2228 - Pass Details

Date: 18 November 2025
Orbit: 566 x 588 km, 82.5° (Epoch: 08 December)

Event Time Altitude Azimuth Distance (km) Brightness Sun altitude
Rises 22:52:55 0° 162° (SSE) 2,757 6.4 -12.6°
Reaches altitude 10° 22:55:22 10° 149° (SSE) 1,863 5.4 -13.2°
Maximum altitude 22:58:47 26° 92° (E) 1,151 3.9 -14.0°
Enters shadow 22:59:43 23° 70° (ENE) 1,221 3.9 -14.2°
